M I D A S
Marine Information and Data Acquisition System
Tripno 581 of the Zeeleeuw from 2003-09-02 06:28:39 to 2003-09-02 14:26:07
Back to CruiseResearch ActivitiesStationsMapUnderway DataData graphs

EquipmentUnitsComments
TimeDGPSUTC
LatitudeDGPSDM.mWGS84
LongitudeDGPSDM.mWGS84
SpeedMeteo Stationm/sRelative wind speed
DirectionMeteo StationdegRelative wind direction
TemperatureMeteo Stationdeg CelciusAir temperature
PressureMeteo StationPaAtmospheric pressure
HumidityMeteo Station%Relative humidity
Missing or incorrect values are displayed as -999
Metereological data collected by the RV Zeeleeuw from 2003-09-02 06:28:39 to 2003-09-02 14:26:07
Time Latitude Longitude Speed Direction Temperature Pressure Humidity
2003-09-02 06:29 51°13.92 2°55.56 1.1 39 14.5 102540 72
2003-09-02 06:30 51°14.04 2°55.48 3.3 52 14.5 102540 72
2003-09-02 06:31 51°14.16 2°55.39 4.2 35 14.5 102540 73
2003-09-02 06:32 51°14.27 2°55.23 5.1 35 14.5 102540 73
2003-09-02 06:33 51°14.39 2°55.02 9.1 56 14.6 102530 73
2003-09-02 06:34 51°14.55 2°54.86 10.9 23 14.8 102530 66
2003-09-02 06:35 51°14.74 2°54.78 13.3 19 15.3 102520 63
2003-09-02 06:36 51°14.95 2°54.7 12.7 17 15.7 102510 62
2003-09-02 06:37 51°15.17 2°54.76 12.7 359 15.9 102510 58
2003-09-02 06:38 51°15.35 2°54.95 12.9 355 16 102520 60
2003-09-02 06:39 51°15.51 2°55.17 12.9 343 16.1 102510 58
2003-09-02 06:40 51°15.66 2°55.43 12.9 340 16.2 102510 59
2003-09-02 06:41 51°15.81 2°55.69 12 340 16.3 102500 57
2003-09-02 06:42 51°15.94 2°55.97 13.6 341 16.4 102510 58
2003-09-02 06:43 51°16.07 2°56.26 14.6 336 16.4 102500 55
2003-09-02 06:44 51°16.19 2°56.56 13 342 16.4 102490 56
2003-09-02 06:45 51°16.32 2°56.86 14.7 350 16.4 102500 60
2003-09-02 06:46 51°16.45 2°57.16 13.7 346 16.4 102510 59
2003-09-02 06:47 51°16.57 2°57.46 14.1 341 16.4 102500 58
2003-09-02 06:48 51°16.69 2°57.77 15.2 337 16.4 102500 58
2003-09-02 06:49 51°16.81 2°58.08 13.7 338 16.4 102510 60
2003-09-02 06:50 51°16.93 2°58.39 12.7 340 16.4 102510 57
2003-09-02 06:51 51°17.05 2°58.69 13.3 341 16.4 102500 58
2003-09-02 06:52 51°17.17 2°58.99 15 343 16.4 102510 58
2003-09-02 06:53 51°17.29 2°59.3 13.3 338 16.4 102510 58
2003-09-02 06:54 51°17.41 2°59.6 13.5 342 16.3 102500 57
2003-09-02 06:55 51°17.53 2°59.91 12.9 336 16.3 102520 57
2003-09-02 06:56 51°17.65 3°0.22 13.7 348 16.4 102530 57
2003-09-02 06:57 51°17.77 3°0.52 13.3 347 16.4 102520 56
2003-09-02 06:58 51°17.89 3°0.83 11.6 346 16.4 102520 57
2003-09-02 06:59 51°18.01 3°1.13 13.1 341 16.4 102520 58
2003-09-02 07:00 51°18.13 3°1.43 11.8 335 16.4 102520 58
2003-09-02 07:01 51°18.25 3°1.74 13.2 332 16.4 102520 58
2003-09-02 07:02 51°18.37 3°2.04 13.8 339 16.4 102530 57
2003-09-02 07:03 51°18.5 3°2.33 12.7 346 16.4 102520 54
2003-09-02 07:04 51°18.64 3°2.61 12.8 345 16.4 102530 57
2003-09-02 07:05 51°18.77 3°2.9 13.4 349 16.4 102520 56
2003-09-02 07:06 51°18.91 3°3.18 12.7 342 16.4 102520 57
2003-09-02 07:07 51°19.04 3°3.46 12.2 350 16.4 102540 56
2003-09-02 07:08 51°19.18 3°3.74 12.1 348 16.3 102530 57
2003-09-02 07:09 51°19.32 3°4.02 11.3 346 16.3 102530 56
2003-09-02 07:10 51°19.45 3°4.3 12.1 348 16.3 102540 58
2003-09-02 07:11 51°19.58 3°4.58 11.7 350 16.3 102540 58
2003-09-02 07:12 51°19.72 3°4.86 12.3 347 16.3 102540 61
2003-09-02 07:13 51°19.85 3°5.14 11.6 353 16.3 102550 59
2003-09-02 07:14 51°19.98 3°5.42 11.6 348 16.3 102540 60
2003-09-02 07:15 51°20.11 3°5.7 11 343 16.3 102540 60
2003-09-02 07:16 51°20.25 3°5.97 10.7 337 16.2 102540 61
2003-09-02 07:17 51°20.38 3°6.26 10.8 346 16.2 102550 60
2003-09-02 07:18 51°20.51 3°6.54 15.7 355 16.2 102540 62
2003-09-02 07:19 51°20.64 3°6.81 12.3 9 16.2 102550 62
2003-09-02 07:20 51°20.77 3°7.09 13.4 9 16.1 102550 64
2003-09-02 07:21 51°20.91 3°7.37 12.2 15 15.9 102560 66
2003-09-02 07:22 51°21.03 3°7.66 13.6 7 15.8 102530 66
2003-09-02 07:23 51°21.14 3°7.96 12.5 1 15.7 102540 64
2003-09-02 07:24 51°21.24 3°8.27 12.4 359 15.7 102550 65
2003-09-02 07:25 51°21.34 3°8.57 11.7 351 15.7 102550 67
2003-09-02 07:26 51°21.44 3°8.87 11.3 351 15.6 102550 66
2003-09-02 07:27 51°21.55 3°9.17 11 346 15.6 102570 67
2003-09-02 07:28 51°21.64 3°9.48 10.3 344 15.5 102560 69
2003-09-02 07:29 51°21.74 3°9.77 9.9 355 15.4 102570 69
2003-09-02 07:30 51°21.84 3°10.07 9 343 15.1 102570 70
2003-09-02 07:31 51°21.93 3°10.36 8.3 343 14.9 102580 71
2003-09-02 07:32 51°22.03 3°10.63 7.8 334 14.7 102580 72
2003-09-02 07:33 51°22.12 3°10.88 6.1 334 14.7 102580 74
2003-09-02 07:34 51°22.22 3°11.14 5.7 321 14.5 102580 74
2003-09-02 07:35 51°22.3 3°11.42 4 5 14.4 102590 74
2003-09-02 07:36 51°22.35 3°11.74 5.5 21 14.3 102580 75
2003-09-02 07:37 51°22.4 3°12.04 5.5 1 14.4 102580 73
2003-09-02 07:38 51°22.46 3°12.35 6.3 25 14.4 102590 70
2003-09-02 07:39 51°22.5 3°12.68 6.6 23 14.6 102560 70
2003-09-02 07:40 51°22.52 3°13.01 6.8 14 14.7 102570 70
2003-09-02 07:41 51°22.57 3°13.33 6.9 26 14.8 102580 69
2003-09-02 07:42 51°22.62 3°13.65 7.3 15 14.8 102590 68
2003-09-02 07:43 51°22.66 3°13.97 6.6 24 14.9 102570 67
2003-09-02 07:44 51°22.71 3°14.28 7.2 22 15 102570 67
2003-09-02 07:45 51°22.77 3°14.57 5 24 15 102570 67
2003-09-02 07:46 51°22.82 3°14.7 2.6 33 15 102580 66
2003-09-02 07:47 51°22.83 3°14.78 1.6 47 15 102580 66
2003-09-02 07:48 51°22.84 3°14.82 1.1 97 15.1 102580 66
2003-09-02 07:49 51°22.85 3°14.83 1.4 117 15.2 102590 66
2003-09-02 07:50 51°22.86 3°14.84 1.7 110 15.2 102580 66
2003-09-02 07:51 51°22.87 3°14.84 1.6 109 15.2 102590 67
2003-09-02 07:52 51°22.88 3°14.83 1.6 129 15.2 102590 66
2003-09-02 07:53 51°22.88 3°14.83 1.4 143 15.2 102590 66
2003-09-02 07:54 51°22.89 3°14.82 3 135 15.2 102600 68
2003-09-02 07:55 51°22.89 3°14.81 3.1 138 15.3 102600 68
2003-09-02 07:56 51°22.89 3°14.8 3 122 15.2 102600 68
2003-09-02 07:57 51°22.88 3°14.8 3.2 103 15.2 102600 69
2003-09-02 07:58 51°22.86 3°14.8 4.8 63 15.1 102600 69
2003-09-02 07:59 51°22.8 3°14.73 5 355 15.1 102600 67
2003-09-02 08:00 51°22.81 3°14.59 3.1 329 15 102610 68
2003-09-02 08:01 51°22.86 3°14.52 4.2 294 15.1 102600 68
2003-09-02 08:02 51°22.93 3°14.54 3.5 272 15.2 102610 70
2003-09-02 08:03 51°22.98 3°14.61 2 273 15.2 102600 71
2003-09-02 08:04 51°23.03 3°14.69 1.7 245 15.2 102600 71
2003-09-02 08:05 51°23.05 3°14.77 1.9 231 15.2 102610 72
2003-09-02 08:06 51°23.06 3°14.82 1.6 243 15.1 102610 70
2003-09-02 08:07 51°23.07 3°14.86 1.4 205 15.1 102610 70
2003-09-02 08:08 51°23.07 3°14.91 2 171 15.1 102620 70
2003-09-02 08:09 51°23.07 3°14.95 1.9 180 15.2 102610 71
2003-09-02 08:10 51°23.08 3°14.98 0.9 208 15.1 102610 70
2003-09-02 08:11 51°23.09 3°15.03 1.7 160 15.1 102600 70
2003-09-02 08:12 51°23.09 3°15.08 1.8 159 15.1 102610 70
2003-09-02 08:13 51°23.11 3°15.12 1.1 152 15.2 102620 70
2003-09-02 08:14 51°23.14 3°15.17 1.8 148 15.2 102610 70
2003-09-02 08:15 51°23.16 3°15.21 0.8 167 15.1 102620 69
2003-09-02 08:16 51°23.18 3°15.26 1.7 149 15.1 102620 69
2003-09-02 08:17 51°23.18 3°15.31 1.9 140 15.1 102620 69
2003-09-02 08:18 51°23.18 3°15.36 1.4 167 15.2 102620 69
2003-09-02 08:19 51°23.2 3°15.41 2.1 136 15.2 102620 70
2003-09-02 08:20 51°23.21 3°15.46 1.4 43 15.3 102620 69
2003-09-02 08:21 51°23.22 3°15.51 1.2 114 15.2 102620 68
2003-09-02 08:22 51°23.23 3°15.56 1.7 113 15.2 102620 69
2003-09-02 08:23 51°23.22 3°15.61 1.7 107 15.3 102620 68
2003-09-02 08:24 51°23.23 3°15.66 1.3 142 15.3 102630 67
2003-09-02 08:25 51°23.24 3°15.7 1.4 121 15.3 102630 67
2003-09-02 08:26 51°23.26 3°15.75 0.9 138 15.4 102630 68
2003-09-02 08:27 51°23.26 3°15.8 1 130 15.4 102630 67
2003-09-02 08:28 51°23.27 3°15.85 2.4 122 15.4 102620 67
2003-09-02 08:29 51°23.28 3°15.89 1.5 142 15.5 102620 68
2003-09-02 08:30 51°23.29 3°15.94 1.8 154 15.5 102620 68
2003-09-02 08:31 51°23.31 3°15.98 1.7 153 15.5 102620 67
2003-09-02 08:32 51°23.31 3°16.02 1.6 130 15.4 102620 67
2003-09-02 08:33 51°23.3 3°16.06 2.8 125 15.4 102630 68
2003-09-02 08:34 51°23.28 3°16.06 3.6 106 15.5 102620 68
2003-09-02 08:35 51°23.25 3°16.04 3.4 83 15.5 102620 68
2003-09-02 08:36 51°23.22 3°16 3.3 60 15.5 102620 69
2003-09-02 08:37 51°23.18 3°15.94 3.5 47 15.4 102630 68
2003-09-02 08:38 51°23.16 3°15.86 3.6 40 15.4 102630 69
2003-09-02 08:39 51°23.14 3°15.79 3.6 38 15.3 102620 68
2003-09-02 08:40 51°23.11 3°15.65 5.8 353 15.3 102620 68
2003-09-02 08:41 51°23.1 3°15.32 10.6 354 15.3 102610 68
2003-09-02 08:42 51°23.11 3°14.92 9 352 15.4 102620 68
2003-09-02 08:43 51°23.16 3°14.51 9.6 349 15.4 102620 67
2003-09-02 08:44 51°23.24 3°14.12 9 345 15.4 102630 66
2003-09-02 08:45 51°23.39 3°13.8 8.2 338 15.5 102620 67
2003-09-02 08:46 51°23.55 3°13.49 8.4 351 15.5 102620 66
2003-09-02 08:47 51°23.7 3°13.19 7.4 358 15.5 102630 64
2003-09-02 08:48 51°23.85 3°12.89 8.8 351 15.6 102630 63
2003-09-02 08:49 51°24.01 3°12.61 7.7 354 15.7 102630 64
2003-09-02 08:50 51°24.18 3°12.34 7.7 344 15.7 102620 65
2003-09-02 08:51 51°24.31 3°11.99 7.7   15.8 102630 66
2003-09-02 08:52 51°24.39 3°11.61 8.3 354 15.8 102630 64
2003-09-02 08:53 51°24.47 3°11.23 7.6 353 15.8 102630 63
2003-09-02 08:54 51°24.51 3°10.84 8 11 15.9 102640 63
2003-09-02 08:55 51°24.54 3°10.44 8.7 353 16 102630 63
2003-09-02 08:56 51°24.58 3°10.04 8.1 13 16 102640 62
2003-09-02 08:57 51°24.63 3°9.65 8.8 4 16.1 102640 63
2003-09-02 08:58 51°24.69 3°9.28 7.8 6 16.1 102630 62
2003-09-02 08:59 51°24.75 3°8.88 9.2 35 16.1 102650 59
2003-09-02 09:00 51°24.81 3°8.51 9.2 50 16.3 102640 57
2003-09-02 09:01 51°24.87 3°8.12 9.2 44 16.4 102630 54
2003-09-02 09:02 51°24.95 3°7.74 8.9 45 16.5 102640 54
2003-09-02 09:03 51°25.06 3°7.4 11.2 31 16.5 102630 52
2003-09-02 09:04 51°25.24 3°7.19 11.6 17 16.6 102630 55
2003-09-02 09:05 51°25.45 3°7.27 12.1 348 16.6 102620 53
2003-09-02 09:06 51°25.57 3°7.53 12.1 346 16.8 102630 59
2003-09-02 09:07 51°25.7 3°7.79 12.7 346 16.8 102630 55
2003-09-02 09:08 51°25.84 3°8.04 12.6 352 16.8 102640 54
2003-09-02 09:09 51°25.99 3°8.28 12.9 357 16.8 102630 53
2003-09-02 09:10 51°26.13 3°8.52 13.8 354 16.9 102640 54
2003-09-02 09:11 51°26.29 3°8.76 12.4 350 16.9 102640 53
2003-09-02 09:12 51°26.46 3°8.98 11.4 350 17 102630 52
2003-09-02 09:13 51°26.62 3°9.21 11.2 346 17 102640 53
2003-09-02 09:14 51°26.72 3°9.35 7.2 332 17 102640 54
2003-09-02 09:15 51°26.74 3°9.37 4.8 352 17 102660 51
2003-09-02 09:16 51°26.75 3°9.36 5.6 348 17.1 102650 51
2003-09-02 09:17 51°26.76 3°9.34 5.5 11 17 102660 51
2003-09-02 09:18 51°26.77 3°9.33 5.1 9 17.1 102660 52
2003-09-02 09:19 51°26.78 3°9.31 5.6 19 17.1 102660 54
2003-09-02 09:20 51°26.8 3°9.29 7.9 17 17.1 102660 50
2003-09-02 09:21 51°26.86 3°9.29 8.5 11 17.1 102650 50
2003-09-02 09:22 51°26.92 3°9.34 8.4 339 17 102650 50
2003-09-02 09:23 51°26.96 3°9.42 6.8 346 17.2 102650 54
2003-09-02 09:24 51°26.98 3°9.47 7.5 332 17.2 102670 51
2003-09-02 09:25 51°27.01 3°9.52 6.9 342 17.3 102650 51
2003-09-02 09:26 51°27.04 3°9.55 7.6 347 17.3 102660 52
2003-09-02 09:27 51°27.06 3°9.58 6.6 340 17.3 102660 49
2003-09-02 09:28 51°27.09 3°9.63 6.3 341 17.3 102660 52
2003-09-02 09:29 51°27.11 3°9.68 5.9 343 17.3 102660 51
2003-09-02 09:30 51°27.13 3°9.72 5.1 357 17.2 102660 48
2003-09-02 09:31 51°27.16 3°9.76 6 359 17.1 102660 50
2003-09-02 09:32 51°27.19 3°9.79 6.9 338 17.1 102660 52
2003-09-02 09:33 51°27.22 3°9.83 7 336 17.1 102660 51
2003-09-02 09:34 51°27.25 3°9.88 3.7 29 17.2 102660 60
2003-09-02 09:35 51°27.28 3°9.92 5.1 7 17 102670 60
2003-09-02 09:36 51°27.3 3°9.97 5.6 23 16.9 102660 61
2003-09-02 09:37 51°27.33 3°10.02 5.4 12 16.7 102670 59
2003-09-02 09:38 51°27.36 3°10.06 6.5 37 16.7 102660 60
2003-09-02 09:39 51°27.39 3°10.09 7 25 16.6 102660 62
2003-09-02 09:40 51°27.42 3°10.11 5 43 16.6 102660 61
2003-09-02 09:41 51°27.45 3°10.14 6.9 26 16.6 102660 63
2003-09-02 09:42 51°27.47 3°10.18 6.1 27 16.5 102670 60
2003-09-02 09:43 51°27.49 3°10.22 7.4 26 16.6 102670 62
2003-09-02 09:44 51°27.52 3°10.26 5.2 26 16.6 102660 63
2003-09-02 09:45 51°27.54 3°10.3 6.2 30 16.6 102650 60
2003-09-02 09:46 51°27.57 3°10.34 4.5 27 16.6 102670 60
2003-09-02 09:47 51°27.59 3°10.38 5.6 37 16.5 102660 60
2003-09-02 09:48 51°27.61 3°10.4 4.1 36 16.5 102660 61
2003-09-02 09:49 51°27.62 3°10.41 5.8 38 16.5 102680 61
2003-09-02 09:50 51°27.63 3°10.41 6.9 49 16.5 102660 61
2003-09-02 09:51 51°27.64 3°10.41 5.2 69 16.6 102670 62
2003-09-02 09:52 51°27.64 3°10.4 4.6 46 16.6 102670 62
2003-09-02 09:53 51°27.64 3°10.38 3.8 59 16.5 102680 64
2003-09-02 09:54 51°27.64 3°10.36 4.6 44 16.5 102690 63
2003-09-02 09:55 51°27.69 3°10.35 4.7 88 16.5 102680 63
2003-09-02 09:56 51°27.77 3°10.16 3.9 32 16.5 102680 62
2003-09-02 09:57 51°27.88 3°9.82 4 31 16.4 102670 62
2003-09-02 09:58 51°27.97 3°9.48 3.8 34 16.4 102680 62
2003-09-02 09:59 51°28.04 3°9.13 4.2 36 16.4 102690 62
2003-09-02 10:00 51°28.11 3°8.77 3.4 32 16.4 102670 62
2003-09-02 10:01 51°28.18 3°8.41 3.6 10 16.4 102670 61
2003-09-02 10:02 51°28.25 3°8.05 4 23 16.5 102690 62
2003-09-02 10:03 51°28.32 3°7.69 4.9 28 16.6 102690 62
2003-09-02 10:04 51°28.39 3°7.32 5.1 18 16.5 102670 60
2003-09-02 10:05 51°28.47 3°6.97 5.7 19 16.6 102690 60
2003-09-02 10:06 51°28.54 3°6.61 4.9 32 16.6 102680 59
2003-09-02 10:07 51°28.65 3°6.29 5.6 30 16.6 102680 61
2003-09-02 10:08 51°28.75 3°5.94 5.7 55 16.6 102670 61
2003-09-02 10:09 51°28.85 3°5.61 6.9 28 16.6 102680 62
2003-09-02 10:10 51°28.96 3°5.27 6.3 35 16.5 102670 61
2003-09-02 10:11 51°29.05 3°4.93 7.1 49 16.5 102680 62
2003-09-02 10:12 51°29.15 3°4.59 7.2 39 16.4 102670 61
2003-09-02 10:13 51°29.24 3°4.26 6.2 28 16.4 102670 61
2003-09-02 10:14 51°29.34 3°3.91 6.3 45 16.4 102670 61
2003-09-02 10:15 51°29.44 3°3.57 6.6 38 16.5 102670 62
2003-09-02 10:16 51°29.53 3°3.23 6.1 54 16.5 102670 63
2003-09-02 10:17 51°29.62 3°2.89 3.3 39 16.5 102670 61
2003-09-02 10:18 51°29.71 3°2.55 9.4 45 16.5 102680 59
2003-09-02 10:19 51°29.8 3°2.23 8.6 48 16.5 102660 58
2003-09-02 10:20 51°29.89 3°1.89 9.1 51 16.6 102670 58
2003-09-02 10:21 51°30 3°1.58 8.3 54 16.7 102670 60
2003-09-02 10:22 51°30.1 3°1.27 9.4 58 16.6 102660 58
2003-09-02 10:23 51°30.21 3°0.93 8.6 47 16.6 102670 56
2003-09-02 10:24 51°30.31 3°0.6 9.1 40 16.6 102670 57
2003-09-02 10:25 51°30.41 3°0.27 9.4 45 16.6 102660 55
2003-09-02 10:26 51°30.51 2°59.94 8.5 47 16.6 102660 57
2003-09-02 10:27 51°30.61 2°59.62 12.2 39 16.6 102660 57
2003-09-02 10:28 51°30.71 2°59.28 10.6 40 16.6 102660 57
2003-09-02 10:29 51°30.81 2°58.95 9.3 39 16.6 102670 57
2003-09-02 10:30 51°30.9 2°58.62 7.8 44 16.6 102670 56
2003-09-02 10:31 51°31 2°58.29 9.6 47 16.6 102670 57
2003-09-02 10:32 51°31.1 2°57.96 9.9 32 16.6 102670 59
2003-09-02 10:33 51°31.19 2°57.62 8.2 35 16.7 102680 58
2003-09-02 10:34 51°31.29 2°57.29 8.6 31 16.7 102680 57
2003-09-02 10:35 51°31.38 2°56.96 9.5 35 16.8 102670 59
2003-09-02 10:36 51°31.49 2°56.62 9.7 38 16.7 102680 58
2003-09-02 10:37 51°31.58 2°56.29 11 32 16.7 102670 52
2003-09-02 10:38 51°31.68 2°55.96 9.5 32 16.8 102670 51
2003-09-02 10:39 51°31.76 2°55.63 9 25 16.8 102670 53
2003-09-02 10:40 51°31.84 2°55.29 9.9 28 16.9 102680 52
2003-09-02 10:41 51°31.92 2°55.08 6.2 21 16.9 102680 51
2003-09-02 10:42 51°31.95 2°55.02 2.5 12 16.9 102680 49
2003-09-02 10:43 51°31.94 2°54.99 2.2 1 17 102690 50
2003-09-02 10:44 51°31.92 2°54.97 2.7 20 17.1 102680 50
2003-09-02 10:45 51°31.91 2°54.94 4.1 25 17.2 102690 52
2003-09-02 10:46 51°31.9 2°54.91 3.1 17 17.3 102680 50
2003-09-02 10:47 51°31.89 2°54.88 3.4 6 17.1 102690 49
2003-09-02 10:48 51°31.88 2°54.86 3.3 340 17.2 102690 50
2003-09-02 10:49 51°31.87 2°54.84 3.7 353 17.2 102680 52
2003-09-02 10:50 51°31.86 2°54.84 3.8 351 17.3 102690 50
2003-09-02 10:51 51°31.88 2°54.87 4 2 17.3 102680 50
2003-09-02 10:52 51°31.91 2°54.93 4.9 354 17.3 102680 51
2003-09-02 10:53 51°31.94 2°55 4.1 3 17.3 102690 52
2003-09-02 10:54 51°31.97 2°55.07 5.7 346 17.3 102680 51
2003-09-02 10:55 51°31.99 2°55.16 5.8 346 17.3 102680 53
2003-09-02 10:56 51°32.01 2°55.21 4.6 347 17.3 102680 55
2003-09-02 10:57 51°32.03 2°55.26 5.5 354 17.3 102670 52
2003-09-02 10:58 51°32.04 2°55.31 5.4 356 17.3 102670 51
2003-09-02 10:59 51°32.06 2°55.35 5.4   17.3 102670 53
2003-09-02 11:00 51°32.09 2°55.38 4 1 17.3 102680 52
2003-09-02 11:01 51°32.11 2°55.42 4.4 355 17.2 102680 52
2003-09-02 11:02 51°32.13 2°55.46 3.9 353 17.2 102680 53
2003-09-02 11:03 51°32.14 2°55.52 5.8 336 17.2 102680 52
2003-09-02 11:04 51°32.15 2°55.57 5.8 340 17.3 102670 53
2003-09-02 11:05 51°32.16 2°55.62 5.1 336 17.4 102680 52
2003-09-02 11:06 51°32.17 2°55.68 4.7 341 17.5 102680 52
2003-09-02 11:07 51°32.18 2°55.73 5 331 17.5 102680 51
2003-09-02 11:08 51°32.2 2°55.78 3.9 338 17.5 102670 51
2003-09-02 11:09 51°32.21 2°55.83 4.9 345 17.5 102670 52
2003-09-02 11:10 51°32.22 2°55.89 4.8 1 17.5 102680 52
2003-09-02 11:11 51°32.23 2°55.93 5.4 360 17.4 102680 52
2003-09-02 11:12 51°32.25 2°55.98 4 359 17.4 102690 52
2003-09-02 11:13 51°32.26 2°56.02 3.9 16 17.3 102690 51
2003-09-02 11:14 51°32.27 2°56.06 4.1 10 17.3 102680 52
2003-09-02 11:15 51°32.29 2°56.1 3.9 334 17.4 102680 55
2003-09-02 11:16 51°32.29 2°56.12 3.2 347 17.4 102680 54
2003-09-02 11:17 51°32.27 2°56.14 3.1 333 17.5 102690 52
2003-09-02 11:18 51°32.25 2°56.17 3.9 42 17.6 102680 52
2003-09-02 11:19 51°32.23 2°56.19 4 305 17.7 102680 52
2003-09-02 11:20 51°32.2 2°56.19 2.5 293 17.7 102690 52
2003-09-02 11:21 51°32.17 2°56.19 3.8 300 17.7 102680 52
2003-09-02 11:22 51°32.14 2°56.18 2.9 298 17.7 102690 50
2003-09-02 11:23 51°32.11 2°56.17 3 297 17.7 102690 49
2003-09-02 11:24 51°32.08 2°56.21 2.9 349 17.8 102690 50
2003-09-02 11:25 51°31.97 2°56.28 3.9 343 17.9 102680 49
2003-09-02 11:26 51°31.77 2°56.14 4.4 6 17.9 102680 50
2003-09-02 11:27 51°31.54 2°56 4.9 17 17.8 102690 50
2003-09-02 11:28 51°31.33 2°55.81 4.3 21 17.6 102690 50
2003-09-02 11:29 51°31.1 2°55.62 3.4 8 17.5 102680 50
2003-09-02 11:30 51°30.88 2°55.42 4.3 16 17.5 102690 53
2003-09-02 11:31 51°30.67 2°55.22 4.6 11 17.5 102680 52
2003-09-02 11:32 51°30.45 2°55.02 3.8 14 17.5 102690 51
2003-09-02 11:33 51°30.24 2°54.81 5.1 11 17.5 102690 52
2003-09-02 11:34 51°30.02 2°54.6 5.2 17 17.5 102680 52
2003-09-02 11:35 51°29.8 2°54.4 4.8 20 17.5 102680 52
2003-09-02 11:36 51°29.59 2°54.19 3.9 22 17.5 102690 50
2003-09-02 11:37 51°29.37 2°53.99 4.5 30 17.4 102690 53
2003-09-02 11:38 51°29.15 2°53.78 5.9 24 17.4 102690 53
2003-09-02 11:39 51°28.92 2°53.59 6.1 25 17.4 102690 53
2003-09-02 11:40 51°28.69 2°53.4 4.7 13 17.4 102690 51
2003-09-02 11:41 51°28.46 2°53.21 4.6 19 17.4 102690 53
2003-09-02 11:42 51°28.23 2°53.03 4.3 29 17.3 102690 53
2003-09-02 11:43 51°28 2°52.84 4.5 28 17.2 102690 53
2003-09-02 11:44 51°27.77 2°52.66 5.2 13 17.2 102680 54
2003-09-02 11:45 51°27.54 2°52.5 5.7 10 17.3 102690 54
2003-09-02 11:46 51°27.3 2°52.34 5.1 7 17.3 102690 52
2003-09-02 11:47 51°27.07 2°52.2 4.8 7 17.3 102680 54
2003-09-02 11:48 51°26.84 2°52.06 4.1 20 17.3 102690 54
2003-09-02 11:49 51°26.61 2°51.93 4.1 23 17.4 102680 53
2003-09-02 11:50 51°26.37 2°51.8 5.2 13 17.5 102690 53
2003-09-02 11:51 51°26.14 2°51.67 5.8 21 17.4 102690 52
2003-09-02 11:52 51°25.91 2°51.53 5.6 16 17.4 102690 52
2003-09-02 11:53 51°25.67 2°51.39 6.2 18 17.4 102690 51
2003-09-02 11:54 51°25.44 2°51.24 5.6 17 17.4 102690 51
2003-09-02 11:55 51°25.2 2°51.09 4.4 18 17.4 102690 50
2003-09-02 11:56 51°24.96 2°50.95 4.9 7 17.4 102690 51
2003-09-02 11:57 51°24.73 2°50.8 4.8 20 17.4 102690 52
2003-09-02 11:58 51°24.49 2°50.65 5.5 10 17.5 102690 50
2003-09-02 11:59 51°24.25 2°50.51 5.9 11 17.5 102700 50
2003-09-02 12:00 51°24.02 2°50.37 5.3 16 17.5 102700 51
2003-09-02 12:01 51°23.78 2°50.23 5.2 19 17.5 102690 50
2003-09-02 12:02 51°23.54 2°50.09 4.6 18 17.5 102700 49
2003-09-02 12:03 51°23.31 2°49.95 4.8 14 17.5 102700 50
2003-09-02 12:04 51°23.07 2°49.82 4.3 8 17.5 102700 48
2003-09-02 12:05 51°22.85 2°49.7 4 358 17.6 102700 50
2003-09-02 12:06 51°22.6 2°49.56 4.5 9 17.6 102700 49
2003-09-02 12:07 51°22.38 2°49.43 4.4 11 17.6 102700 47
2003-09-02 12:08 51°22.14 2°49.3 5.2 3 17.6 102700 49
2003-09-02 12:09 51°21.91 2°49.16 4.6 9 17.6 102710 47
2003-09-02 12:10 51°21.67 2°49.03 5.6 3 17.6 102710 48
2003-09-02 12:11 51°21.45 2°48.9 5.8 13 17.7 102700 51
2003-09-02 12:12 51°21.29 2°48.84 2.1 359 17.6 102700 57
2003-09-02 12:13 51°21.24 2°48.82 0.3 220 17.6 102690 57
2003-09-02 12:14 51°21.21 2°48.79 1.3 234 17.8 102700 57
2003-09-02 12:15 51°21.19 2°48.77 1.5 245 17.9 102710 57
2003-09-02 12:16 51°21.16 2°48.76 3.8 265 17.9 102700 56
2003-09-02 12:17 51°21.14 2°48.75 3.9 285 17.8 102690 51
2003-09-02 12:18 51°21.11 2°48.74 2.6 278 17.9 102690 49
2003-09-02 12:19 51°21.09 2°48.73 3 297 17.8 102700 48
2003-09-02 12:20 51°21.07 2°48.73 4.2 299 17.9 102690 52
2003-09-02 12:21 51°21.04 2°48.74 4 301 17.9 102700 48
2003-09-02 12:22 51°20.99 2°48.77 2.3 194 17.8 102690 49
2003-09-02 12:23 51°20.92 2°48.66 4.2 79 17.8 102690 51
2003-09-02 12:24 51°20.96 2°48.55 5.6 8 17.6 102690 48
2003-09-02 12:25 51°21 2°48.56 4.4 335 17.5 102690 50
2003-09-02 12:26 51°21.02 2°48.6 4.2 341 17.6 102700 50
2003-09-02 12:27 51°21.02 2°48.65 3.7 339 17.7 102690 49
2003-09-02 12:28 51°21.03 2°48.69 4.4 337 17.8 102700 50
2003-09-02 12:29 51°21.04 2°48.74 4.7 329 17.9 102690 50
2003-09-02 12:30 51°21.04 2°48.79 4.3 316 17.9 102700 48
2003-09-02 12:31 51°21.05 2°48.85 4.2 327 17.9 102700 49
2003-09-02 12:32 51°21.06 2°48.88 4.1 323 18.1 102690 52
2003-09-02 12:33 51°21.08 2°48.91 4.1 339 18 102690 49
2003-09-02 12:34 51°21.11 2°48.93 3.7 317 18.1 102690 49
2003-09-02 12:35 51°21.12 2°48.98 5.8 327 18.1 102690 50
2003-09-02 12:36 51°21.14 2°49.01 5   18.2 102690 53
2003-09-02 12:37 51°21.17 2°49.05 5.8 334 18 102700 54
2003-09-02 12:38 51°21.2 2°49.09 5.5 325 17.9 102700 53
2003-09-02 12:39 51°21.22 2°49.15 5 326 17.9 102700 51
2003-09-02 12:40 51°21.24 2°49.22 4.9 314 17.9 102690 51
2003-09-02 12:41 51°21.25 2°49.29 4.3 227 17.9 102690 50
2003-09-02 12:42 51°21.25 2°49.37 4.7 321 17.9 102690 51
2003-09-02 12:43 51°21.26 2°49.45 4.3 325 17.9 102690 52
2003-09-02 12:44 51°21.27 2°49.52 4.6 328 18 102690 49
2003-09-02 12:45 51°21.27 2°49.59 6.1 43 18 102690 50
2003-09-02 12:46 51°21.27 2°49.65 4.7 319 18 102680 50
2003-09-02 12:47 51°21.28 2°49.71 5.2 228 18 102680 52
2003-09-02 12:48 51°21.29 2°49.75 4.9 328 18 102690 50
2003-09-02 12:49 51°21.3 2°49.8 4.3 329 18 102690 51
2003-09-02 12:50 51°21.32 2°49.84 5.3 342 18 102700 52
2003-09-02 12:51 51°21.34 2°49.87 5.8 1 17.9 102680 50
2003-09-02 12:52 51°21.35 2°49.89 4.1 343 17.8 102680 52
2003-09-02 12:53 51°21.34 2°49.91 3.5 325 17.8 102680 50
2003-09-02 12:54 51°21.33 2°49.92 3.1 316 17.9 102680 51
2003-09-02 12:55 51°21.32 2°49.94 3.3 326 17.9 102690 51
2003-09-02 12:56 51°21.3 2°49.95 4.7 294 18 102690 52
2003-09-02 12:57 51°21.29 2°49.95 4.5 294 18 102680 50
2003-09-02 12:58 51°21.27 2°49.94 4.3 299 17.9 102680 49
2003-09-02 12:59 51°21.25 2°49.93 3.3 306 17.8 102690 50
2003-09-02 13:00 51°21.24 2°49.95 4.6 306 17.8 102690 49
2003-09-02 13:01 51°21.19 2°50.03 2.3 263 17.8 102680 52
2003-09-02 13:02 51°21.05 2°50.02 2.5 349 17.7 102680 50
2003-09-02 13:03 51°20.82 2°50.02 4.9 343 17.8 102680 50
2003-09-02 13:04 51°20.6 2°50.14 4.7 346 17.9 102690 52
2003-09-02 13:05 51°20.38 2°50.27 4.8 339 17.9 102690 49
2003-09-02 13:06 51°20.16 2°50.4 5.2 352 17.9 102680 52
2003-09-02 13:07 51°19.94 2°50.53 5.4 353 17.9 102680 52
2003-09-02 13:08 51°19.72 2°50.66 4.3 1 17.9 102680 50
2003-09-02 13:09 51°19.51 2°50.79 5.6 343 17.8 102680 52
2003-09-02 13:10 51°19.29 2°50.91 5.5 348 17.9 102680 50
2003-09-02 13:11 51°19.06 2°51.03 5 345 17.9 102680 51
2003-09-02 13:12 51°18.84 2°51.17 6.3 350 18 102680 52
2003-09-02 13:13 51°18.63 2°51.32 4.6 345 17.9 102680 52
2003-09-02 13:14 51°18.41 2°51.46 5.6 345 17.9 102680 53
2003-09-02 13:15 51°18.2 2°51.61 6.1 343 17.8 102680 52
2003-09-02 13:16 51°17.99 2°51.76 4.9 344 17.8 102670 53
2003-09-02 13:17 51°17.78 2°51.93 3.6 353 17.7 102680 52
2003-09-02 13:18 51°17.57 2°52.11 6.8 351 17.8 102680 55
2003-09-02 13:19 51°17.36 2°52.29 6.3 349 17.7 102680 53
2003-09-02 13:20 51°17.18 2°52.52 6.5 348 17.7 102680 56
2003-09-02 13:21 51°17.07 2°52.76 5.1 354 17.6 102670 55
2003-09-02 13:22 51°17.03 2°52.91 4 337 17.6 102680 55
2003-09-02 13:23 51°17.02 2°52.97 3.1 341 17.6 102680 55
2003-09-02 13:24 51°17.01 2°52.98 2.6 359 17.7 102680 54
2003-09-02 13:25 51°17 2°52.99 2 336 17.6 102680 55
2003-09-02 13:26 51°16.99 2°52.99 1.8 358 17.7 102690 55
2003-09-02 13:27 51°16.98 2°52.99 1.4 355 17.8 102680 54
2003-09-02 13:28 51°16.97 2°52.99 2.5 341 18 102690 55
2003-09-02 13:29 51°16.97 2°53.03 4.9 347 18 102680 54
2003-09-02 13:30 51°16.98 2°53.14 4.9 325 17.9 102680 56
2003-09-02 13:31 51°16.98 2°53.27 4 338 17.9 102670 55
2003-09-02 13:32 51°16.98 2°53.38 4.1 325 17.8 102670 55
2003-09-02 13:33 51°16.97 2°53.46 2.7 312 17.9 102680 55
2003-09-02 13:34 51°16.95 2°53.53 2.1 307 17.9 102680 55
2003-09-02 13:35 51°16.94 2°53.6 2.3 44 18 102680 54
2003-09-02 13:36 51°16.94 2°53.66 2.1 345 18.1 102680 55
2003-09-02 13:37 51°16.94 2°53.72 2.9 331 18.1 102680 54
2003-09-02 13:38 51°16.94 2°53.77 3.7 323 18.2 102680 55
2003-09-02 13:40 51°16.93 2°53.84 2.6 313 18.2 102680 53
2003-09-02 13:41 51°16.92 2°53.91 2.4 340 18.1 102680 53
2003-09-02 13:42 51°16.93 2°53.97 3.4 344 18.2 102680 54
2003-09-02 13:43 51°16.94 2°54.03 3 353 18 102680 54
2003-09-02 13:44 51°16.95 2°54.09 4.8 326 17.9 102680 56
2003-09-02 13:45 51°16.96 2°54.15 3.4 41 17.8 102680 53
2003-09-02 13:46 51°16.97 2°54.21 3.3 312 17.8 102680 53
2003-09-02 13:47 51°16.98 2°54.28 4.5 320 17.8 102680 54
2003-09-02 13:48 51°16.98 2°54.34 3.5 307 17.8 102680 52
2003-09-02 13:49 51°16.98 2°54.41 3.7 313 17.8 102670 52
2003-09-02 13:50 51°16.99 2°54.47 4 315 17.9 102680 54
2003-09-02 13:51 51°17.01 2°54.53 5.3 335 18 102670 53
2003-09-02 13:52 51°17.02 2°54.59 5.3 323 18.1 102680 54
2003-09-02 13:53 51°17.03 2°54.65 5.2 326 18.1 102680 51
2003-09-02 13:54 51°17.04 2°54.7 4 320 18.1 102680 50
2003-09-02 13:55 51°17.05 2°54.75 3.2 339 18.1 102670 52
2003-09-02 13:56 51°17.06 2°54.79 2.9 321 18 102680 51
2003-09-02 13:57 51°17.06 2°54.82 3.9 288 18 102670 53
2003-09-02 13:58 51°17.05 2°54.89 4.1 312 17.9 102680 54
2003-09-02 13:59 51°16.99 2°55.02 2.7 259 17.8 102680 54
2003-09-02 14:00 51°16.92 2°55.07 2.2 200 17.7 102680 55
2003-09-02 14:01 51°16.86 2°55.06 2.1 173 17.8 102680 53
2003-09-02 14:02 51°16.82 2°55.05 3.1 162 17.9 102680 52
2003-09-02 14:03 51°16.78 2°55.04 2.9 158 17.9 102680 52
2003-09-02 14:04 51°16.73 2°55.02 1.3 95 17.7 102690 52
2003-09-02 14:05 51°16.53 2°54.96 4.1 35 17.7 102680 53
2003-09-02 14:06 51°16.32 2°54.86 2.8 27 17.6 102690 52
2003-09-02 14:07 51°16.09 2°54.77 2.8 35 17.6 102690 54
2003-09-02 14:08 51°15.87 2°54.67 4.5 20 17.7 102680 53
2003-09-02 14:09 51°15.65 2°54.67 4.3 1 17.7 102680 53
2003-09-02 14:10 51°15.42 2°54.72 3.6 352 17.7 102690 53
2003-09-02 14:11 51°15.2 2°54.78 2.6 355 17.7 102690 53
2003-09-02 14:12 51°14.98 2°54.86 4 351 17.6 102680 52
2003-09-02 14:13 51°14.76 2°54.93 3.3 356 17.6 102680 52
2003-09-02 14:14 51°14.54 2°55.01 2.9 346 17.5 102690 52
2003-09-02 14:15 51°14.34 2°55.14 3.5 339 17.5 102680 52
2003-09-02 14:16 51°14.22 2°55.33 2.4 337 17.5 102680 53
2003-09-02 14:17 51°14.12 2°55.44 1.3 283 17.6 102680 54
2003-09-02 14:18 51°14.03 2°55.5 0.4 229 17.6 102680 53
2003-09-02 14:19 51°13.93 2°55.56 1.8 256 17.6 102680 55
2003-09-02 14:20 51°13.83 2°55.63 1.3 223 17.6 102670 52
2003-09-02 14:21 51°13.75 2°55.72 3 311 17.5 102670 53
2003-09-02 14:22 51°13.69 2°55.85 4 282 17.6 102670 54
2003-09-02 14:23 51°13.64 2°55.96 2.8 240 17.7 102670 51
2003-09-02 14:24 51°13.61 2°56.07 2.7 262 17.7 102680 51
2003-09-02 14:25 51°13.6 2°56.11 3.2 233 17.8 102670 51